Racecast

Natalie Harper

Sacramento Elite (CA) · 10 · STS · Compare head to head

Athlete rating 138.2 2018 XC season
Best race 160.4 XC
Races 98
Seasons 7 2012 — 2018

RankedNation #2737·CA #1472·Team #7 ?

Rating scale ?

Cross Country

2018 XC 133.3

Sacramento Elite (CA) · Grade 10

Date Meet Event Result Place Rating Difficulty PR/SR Flags
2018-12-08 Rancho San Rafael 5000m 20:51.1 16th · 2nd on team 131.9 +0.059 ★CR CSR
2018-11-25 Willow Hills Reservoir Course 5000m 20:28.8 11th · 3rd on team 134.6 +0.060 ★PR ★CR SR CSR RSR

2016 XC 145.7

Sacramento Elite (CA) · Grade 7

Date Meet Event Result Place Rating Difficulty PR/SR Flags
2016-12-10 Veteran's Park 4000m 14:36.7 25th · 1st on team 148.3 -0.072 ★PR ★CR SR CSR
2016-11-27 Willow Hills Reservoir Course 3000m 14:13.2 1st · 1st on team 119.6 +0.022 ★PR ★CR SR CSR
2016-10-22 Gibson Ranch 3218m 11:54.3 1st · 1st on team 160.4 +0.038 ★PR ★CR ★R SR CSR RSR
2016-10-15 Granite Park 2414m 8:23 2nd · 1st on team 153.7 -0.041 ★PR ★CR SR CSR RSR
2016-10-08 Granite Park 2253m 7:56.4 1st · 1st on team 148.9 -0.053 ★PR ★CR SR CSR RSR
2016-10-01 Haggin Oaks Golf Course 2253m 8:16.6 4th · 1st on team 143.9 -0.051 ★CR SR CSR
2016-09-03 Lagoon Valley Park 2414m 8:54 1st · 1st on team 144.9 -0.036 PR ★CR SR CSR RSR

2015 XC 157.8

Sacramento Valley Endurance (CA) · Grade 7

Date Meet Event Result Place Rating Difficulty PR/SR Flags
2015-09-19 Willow Hills Reservoir Course 2414m 9:16 2nd · 1st on team 157.8 +0.093 ★CR R SR CSR RSR

2014 XC 127.8

Sacramento Valley Endurance (CA) · Grade 6

Date Meet Event Result Place Rating Difficulty PR/SR Flags
2014-11-23 Willow Hills Reservoir Course 2000m 11:49 4th · 3rd on team 92.4 +0.010 ★PR ★CR SR CSR
2014-10-18 Willow Hills Reservoir Course 2800m 10:41 2nd · 1st on team 145.1 -0.023 ★PR ★CR SR CSR
2014-10-11 Granite Park 2253m 8:04 4th · 2nd on team 146.0 -0.053 PR CR SR CSR RSR

2013 XC 151.7

Sacramento Valley Endurance (CA) · Grade 5

Date Meet Event Result Place Rating Difficulty PR/SR Flags
2013-09-07 Lagoon Valley Park 2414m 9:10 3rd · 1st on team 151.7 -0.036 PR CR R SR CSR RSR

2012 XC 144.2

Sacramento Valley Endurance (CA) · Grade 4

Date Meet Event Result Place Rating Difficulty PR/SR Flags
2012-09-15 Willow Hills Reservoir Course 2414m 10:57 10th · 4th on team 144.2 +0.093 PR CR R SR CSR RSR

Track & Field

2017 TF 137.9

Sacramento Elite (CA) · Grade 8

Date Meet Event Result Place Rating Difficulty PR/SR Flags
2017-05-21 Stockton Saints Invitational 800m 2:26.28 1st · 1st on team 135.1 -0.043
2017-05-21 Stockton Saints Invitational 3000m 10:36.19 1st · 1st on team 140.2 -0.043 ★PR SR
2017-05-21 Stockton Saints Invitational 1500m 4:50.64 1st · 1st on team 140.9 -0.043 ★PR SR
2017-05-07 Hercules/Running Rebels USATF PA Youth T&F 1500m 4:51.07 1st · 1st on team 139.9 -0.047 PR SR
2017-04-29 RETC USATF PA Youth T&F 3000m 10:40.65 1st · 1st on team 141.4 -0.032 SR RSR
2017-04-28 Sheldon Distance Carnival 800m 2:25.5 1st · 1st on team 136.2 -0.042 ★PR SR
2017-04-28 Sheldon Distance Carnival 1600m 5:26.3 1st · 1st on team 135.5 -0.042
2017-04-07 Friday Night Lights 1600m 5:37.88 1st · 1st on team 133.2 -0.030
2017-04-07 Friday Night Lights 100m 15.82 5th · 4th on team -0.030 ★PR SR
2017-03-18 Dublin Distance Fiesta 1600m 5:16.35 17th · 1st on team 138.4 -0.048 ★PR SR RSR

2016 TF 137.0

Sacramento Valley Endurance (CA) · Grade 7

Date Meet Event Result Place Rating Difficulty PR/SR Flags
2016-07-31 USATF National Junior Olympic Championships 3000m 10:54.96 23rd · 1st on team 142.4 +0.002 RSR
2016-06-12 USATF Pacific Association Youth Championship 800m 2:29.84 8th · 1st on team 131.7 -0.043
2016-06-12 USATF Pacific Association Youth Championship 3000m 10:36.55 2nd · 1st on team 140.1 -0.043 PR SR
2016-06-12 USATF Pacific Association Youth Championship 1500m 4:57.09 5th · 1st on team 137.9 -0.043 PR SR
2016-05-15 3M USATF Youth T&F Meet 1500m 4:59.54 3rd · 1st on team 137.4 -0.040 SR
2016-05-15 3M USATF Youth T&F Meet 3000m 10:37.55 2nd · 1st on team 140.4 -0.040 PR SR RSR
2016-05-15 3M USATF Youth T&F Meet 800m 2:29 8th · 1st on team 132.9 -0.040
2016-04-29 Sheldon Distance Carnival 800m 2:27.3 4th · 3rd on team 133.8 -0.042 PR SR
2016-04-23 Halden Invitational 1600m 5:20.12 2nd · 1st on team 138.5 -0.034 PR SR RSR
2016-04-02 Sac Speed Factory USATF Youth T&F Meet 3000m 10:52.74 2nd · 1st on team 136.7 -0.042 SR RSR
2016-04-02 Sac Speed Factory USATF Youth T&F Meet 1500m 5:02.47 1st · 1st on team 135.6 -0.042 SR

2015 TF 134.0

Sacramento Valley Endurance (CA) · Grade 6

Date Meet Event Result Place Rating Difficulty PR/SR Flags
2015-06-21 USATF Pacific Association Junior Olympic Championships 3000m 10:45.62 4th · 2nd on team 138.4 -0.039 PR SR
2015-06-21 USATF Pacific Association Junior Olympic Championships 1500m 4:58.94 6th · 2nd on team 138.1 -0.039 PR SR
2015-06-13 Golden West Invitational 1mile 5:26.82 10th · 4th on team 139.3 -0.024 ★PR SR RSR
2015-05-31 PAC (Pacific Association Youth Champions 800m 2:37.18 15th · 5th on team 126.9 -0.032
2015-05-31 PAC (Pacific Association Youth Champions 1500m 5:10.83 13th · 6th on team 133.7 -0.032
2015-05-31 PAC (Pacific Association Youth Champions 3000m 10:48.4 5th · 3rd on team 138.6 -0.032
2015-05-16 3M Track Club Track and Field Invitation 1500m 5:11.74 9th · 2nd on team 132.4 -0.040
2015-05-16 3M Track Club Track and Field Invitation 800m 2:32.22 6th · 3rd on team 130.2 -0.040 PR SR
2015-05-02 Running Rebels/Top Pacers Invitational 1500m 5:10.96 4th · 2nd on team 131.5 -0.047
2015-05-02 Running Rebels/Top Pacers Invitational 3000m 11:03.92 2nd · 2nd on team 133.2 -0.047
2015-04-25 Revolution Express Track Club 3000m 10:46.88 3rd · 2nd on team 138.6 -0.032 RSR
2015-04-25 Revolution Express Track Club 1500m 5:00.79 2nd · 2nd on team 137.9 -0.032 PR SR
2015-04-11 Halden Invitational 800m 2:33.07 5th · 5th on team 130.1 -0.034
2015-04-11 Halden Invitational 1600m 5:30.98 3rd · 3rd on team 134.9 -0.034 PR SR
2015-04-04 Sacramento Speed Factory 800m 2:32.6 7th · 2nd on team 129.6 -0.042 PR SR
2015-04-04 Sacramento Speed Factory 3000m 10:46.12 2nd · 1st on team 138.1 -0.042 PR SR RSR
2015-04-04 Sacramento Speed Factory 1500m 5:01.18 1st · 1st on team 136.8 -0.042 PR SR
2015-03-21 RPM Legacy 800m 3:37.8 9th · 3rd on team -0.030
2015-03-21 RPM Legacy 1500m 5:03.14 2nd · 1st on team 137.5 -0.030 PR SR RSR
2015-03-21 RPM Legacy 400m 1:09.73 41st · 2nd on team -0.030 ★PR SR
2015-02-21 UC Berkeley All Comers 1500m 5:11.79 3rd · 3rd on team 131.9 -0.041 SR RSR
2015-02-21 UC Berkeley All Comers 800m 2:38.93 3rd · 3rd on team 124.2 -0.041 SR
2015-02-21 UC Berkeley All Comers 3200m 12:07.78 3rd · 3rd on team 131.5 -0.041 ★PR SR

2014 TF 144.5

Sacramento Valley Endurance (CA) · Grade 5

Date Meet Event Result Place Rating Difficulty PR/SR Flags
2014-06-20 USATF Pacific Assoc. Junior Olympics (Top 8) 3000m 11:17.76 2nd · 1st on team 143.1 -0.038
2014-06-20 USATF Pacific Assoc. Junior Olympics (Top 8) 1500m 5:11.25 2nd · 1st on team 145.9 -0.038 PR SR
2014-06-20 USATF Pacific Assoc. Junior Olympics (Top 8) 800m 2:33.42 3rd · 1st on team 144.9 -0.038 PR SR
2014-05-31 Pacific Association Championships (PAC) 1500m 5:18.44 3rd · 1st on team 143.6 -0.032
2014-05-31 Pacific Association Championships (PAC) 3000m 11:17.58 2nd · 1st on team 144.3 -0.032
2014-05-18 3M Invitational 1500m 5:14.55 1st · 1st on team 144.4 -0.040 PR SR
2014-05-18 3M Invitational 800m 2:35.46 1st · 1st on team 143.0 -0.040 PR SR
2014-05-02 Sheldon Distance Carnival 1600m 5:33.9 7th · 1st on team 145.5 -0.042 PR SR
2014-04-26 Revolution Express TC 3000m 11:00.36 1st · 1st on team 146.4 -0.032 PR SR
2014-04-26 Revolution Express TC 1500m 5:16.12 1st · 1st on team 143.8 -0.032
2014-04-26 Revolution Express TC 800m 2:37.36 3rd · 1st on team 141.7 -0.032
2014-04-12 Halden Invitational 1600m 5:40.72 4th · 2nd on team 144.0 -0.034 SR
2014-03-22 RPM 800m 2:35.6 1st · 1st on team 145.6 -0.019 PR SR RSR
2014-03-22 RPM 1500m 5:15.1 2nd · 1st on team 146.9 -0.019 PR SR RSR

2013 TF 140.6

Sacramento Valley Endurance (CA) · Grade 4

Date Meet Event Result Place Rating Difficulty PR/SR Flags
2013-06-21 Pacific Association Junior Olympics (3-day) 800m 2:37.04 10th · 2nd on team 141.5 -0.034 PR SR
2013-06-21 Pacific Association Junior Olympics (3-day) 3000m 11:20.22 7th · 5th on team 142.4 -0.034 PR SR
2013-06-08 Pacific Association Youth Championship (PAC) - 2-day meet 800m 2:40.17 6th · 2nd on team 139.3 -0.032
2013-06-08 Pacific Association Youth Championship (PAC) - 2-day meet 1500m 5:22.58 10th · 5th on team 141.2 -0.032
2013-05-18 3M Track Club 800m 2:37.37 3rd · 1st on team 140.6 -0.040 PR SR
2013-05-18 3M Track Club 1500m 5:15.51 7th · 5th on team 143.2 -0.040 PR SR
2013-05-04 Hercules / Running Rebels (2-day) 800m 2:39.67 5th · 1st on team 137.5 -0.047
2013-05-04 Hercules / Running Rebels (2-day) 1500m 5:17.67 3rd · 2nd on team 141.2 -0.047 PR SR
2013-05-04 Hercules / Running Rebels (2-day) 3000m 11:23.25 4th · 3rd on team 140.2 -0.047 PR SR
2013-04-27 Revolution Express Track Club 1500m 5:22.2 2nd · 2nd on team 141.5 -0.032 PR SR
2013-04-27 Revolution Express Track Club 800m 2:37.47 4th · 2nd on team 141.7 -0.032 PR SR
2013-04-26 Sheldon Distance Carnival 800m 2:39.2 3rd · 2nd on team 138.5 -0.042 PR SR RSR
2013-04-26 Sheldon Distance Carnival 1600m 5:34.4 3rd · 2nd on team 144.7 -0.042 PR R SR RSR
2013-04-06 Sacramento Speed Showcase 1500m 5:27.09 4th · 1st on team 137.5 -0.042 PR SR RSR
2013-04-06 Sacramento Speed Showcase 3000m 11:34.19 6th · 3rd on team 137.9 -0.042 PR SR RSR

2012 TF 130.7

Sacramento Speed Factory (CA) · Grade 3

Date Meet Event Result Place Rating Difficulty PR/SR Flags
2012-07-06 USATF Region 14 Junior Olympic Championships 1500m 5:37.04 2nd · 1st on team 133.6 -0.040 PR R SR RSR
2012-07-06 USATF Region 14 Junior Olympic Championships 800m 2:44.34 5th · 1st on team 134.3 -0.040 PR R SR RSR
2012-06-22 USATF Pacific Association Junior Olympic Championships 1500m 5:44.84 2nd · 1st on team 130.4 -0.035
2012-06-22 USATF Pacific Association Junior Olympic Championships 800m 2:49.53 2nd · 1st on team 130.2 -0.035 PR SR
2012-06-22 USATF Pacific Association Junior Olympic Championships 400m 1:16.98 5th · 1st on team -0.035
2012-06-09 Pacific Association Youth Championships 800m 2:53.93 5th · 1st on team 127.9 -0.034 PR SR
2012-06-09 Pacific Association Youth Championships 400m 1:15.08 7th · 1st on team -0.034 PR SR
2012-06-09 Pacific Association Youth Championships 1500m 5:42.42 3rd · 1st on team 132.6 -0.034 PR R SR RSR
2012-05-26 Central Valley Roadrunners Track Club 1500m 5:45.53 2nd · 1st on team 130.8 -0.036 PR R SR RSR
2012-05-26 Central Valley Roadrunners Track Club 800m 2:55.99 2nd · 1st on team 125.9 -0.036 PR SR